Meridianville, AL

11:04 AM CST on December 10, 2016 (GMT -0600)
Huntsville Madison

Weather History for KMDQ - November, 2013

Change the Weather History Date:

Tuesday, November 5, 2013

  Actual Average (KHSV) Record (KHSV)
Temperature  
Mean Temperature 56 °F -  
Max Temperature 62 °F 62 °F 83 °F (1909)
Min Temperature 50 °F 39 °F 19 °F (1991)
Degree Days  
Heating Degree Days 9    
Growing Degree Days 6 (Base 50)    
Moisture  
Dew Point 32 °F    
Average Humidity 42    
Maximum Humidity 67    
Minimum Humidity 32    
Precipitation  
Precipitation 0.00 in - - ()
Sea Level Pressure  
Sea Level Pressure 30.33 in    
Wind  
Wind Speed 8 mph (SE)    
Max Wind Speed 14 mph    
Max Gust Speed 21 mph    
Visibility 10 miles    
Events      
Averages and records for this station are not official NWS values.
T = Trace of Precipitation, MM = Missing Value Source: NWS Daily Summary

Daily Weather History Graph

Daily Weather History Graph

Search for Another Location

Airport or City:

Trip Planner

Search our weather history database for the weather conditions in past years. The results will help you decide how hot, cold, wet, or windy it might be!

Date:

Astronomy

Nov. 05, 2013 Rise Set
Actual Time 6:11 AM CST 4:48 PM CST
Civil Twilight 5:44 AM CST 5:14 PM CST
Nautical Twilight 5:14 AM CST 5:44 PM CST
Astronomical Twilight 4:44 AM CST 6:14 PM CST
Moon 8:22 AM CST (11/5) 6:52 PM CST (11/5)
Length of Visible Light 11h 29m
Length of Day
10h 37m
Waxing Crescent, 7% of the Moon is Illuminated
Nov 5
Waxing Crescent
Nov 9
First Quarter
Nov 17
Full
Nov 25
Last Quarter
Dec 2
New

Hourly Weather History & Observations

Time (CST) Temp. Dew Point Humidity Pressure Visibility Wind Dir Wind Speed Gust Speed Precip Events Conditions
12:15 AM 53.6 °F 30.2 °F 41% 30.36 in 10.0 mi SE 8.1 mph - N/A   Clear
12:35 AM 53.6 °F 30.2 °F 41% 30.36 in 10.0 mi SE 9.2 mph - N/A   Clear
12:55 AM 53.6 °F 30.2 °F 41% 30.37 in 10.0 mi SE 9.2 mph - N/A   Clear
1:15 AM 53.6 °F 30.2 °F 41% 30.36 in 10.0 mi SE 9.2 mph 18.4 mph N/A   Clear
1:35 AM 53.6 °F 30.2 °F 41% 30.36 in 10.0 mi SE 11.5 mph 17.3 mph N/A   Clear
1:55 AM 53.6 °F 30.2 °F 41% 30.36 in 10.0 mi SE 8.1 mph - N/A   Clear
2:15 AM 53.6 °F 30.2 °F 41% 30.36 in 10.0 mi SE 10.4 mph 17.3 mph N/A   Clear
2:35 AM 51.8 °F 30.2 °F 44% 30.36 in 10.0 mi SE 9.2 mph - N/A   Clear
2:55 AM 51.8 °F 30.2 °F 44% 30.35 in 10.0 mi ESE 6.9 mph - N/A   Clear
3:15 AM 51.8 °F 30.2 °F 44% 30.35 in 10.0 mi SE 9.2 mph - N/A   Clear
3:35 AM 51.8 °F 30.2 °F 44% 30.36 in 10.0 mi SE 9.2 mph - N/A   Clear
3:55 AM 51.8 °F 30.2 °F 44% 30.36 in 10.0 mi SE 8.1 mph - N/A   Clear
4:15 AM 51.8 °F 30.2 °F 44% 30.36 in 10.0 mi SE 6.9 mph - N/A   Clear
4:35 AM 51.8 °F 30.2 °F 44% 30.36 in 10.0 mi SE 9.2 mph - N/A   Clear
4:55 AM 51.8 °F 30.2 °F 44% 30.36 in 10.0 mi SE 6.9 mph - N/A   Clear
5:15 AM 51.8 °F 30.2 °F 44% 30.37 in 10.0 mi SE 6.9 mph - N/A   Clear
5:35 AM 50.0 °F 30.2 °F 47% 30.37 in 10.0 mi SE 6.9 mph - N/A   Clear
5:55 AM 50.0 °F 30.2 °F 47% 30.37 in 10.0 mi SE 10.4 mph - N/A   Clear
6:15 AM 50.0 °F 30.2 °F 47% 30.37 in 10.0 mi SE 9.2 mph - N/A   Clear
6:35 AM 50.0 °F 30.2 °F 47% 30.38 in 10.0 mi SE 6.9 mph 17.3 mph N/A   Clear
6:55 AM 50.0 °F 30.2 °F 47% 30.38 in 10.0 mi SE 10.4 mph - N/A   Clear
7:15 AM 50.0 °F 30.2 °F 47% 30.39 in 10.0 mi SE 5.8 mph 17.3 mph N/A   Clear
7:35 AM 50.0 °F 30.2 °F 47% 30.39 in 10.0 mi SE 8.1 mph 17.3 mph N/A   Clear
7:55 AM 51.8 °F 30.2 °F 44% 30.40 in 10.0 mi SE 9.2 mph 17.3 mph N/A   Clear
8:15 AM 51.8 °F 30.2 °F 44% 30.40 in 10.0 mi SE 9.2 mph - N/A   Clear
8:35 AM 51.8 °F 30.2 °F 44% 30.39 in 10.0 mi SE 11.5 mph 16.1 mph N/A   Clear
8:55 AM 51.8 °F 30.2 °F 44% 30.39 in 10.0 mi SE 10.4 mph 17.3 mph N/A   Scattered Clouds
9:15 AM 53.6 °F 30.2 °F 41% 30.40 in 10.0 mi SE 13.8 mph 20.7 mph N/A   Mostly Cloudy
9:35 AM 53.6 °F 30.2 °F 41% 30.41 in 10.0 mi SE 10.4 mph - N/A   Mostly Cloudy
9:55 AM 53.6 °F 30.2 °F 41% 30.40 in 10.0 mi SSE 11.5 mph - N/A   Scattered Clouds
10:15 AM 55.4 °F 30.2 °F 38% 30.40 in 10.0 mi SE 9.2 mph - N/A   Scattered Clouds
10:35 AM 55.4 °F 30.2 °F 38% 30.40 in 10.0 mi SSE 10.4 mph 16.1 mph N/A   Mostly Cloudy
10:55 AM 55.4 °F 30.2 °F 38% 30.40 in 10.0 mi SSE 9.2 mph - N/A   Scattered Clouds
11:15 AM 55.4 °F 32.0 °F 41% 30.39 in 10.0 mi SE 6.9 mph - N/A   Mostly Cloudy
11:35 AM 55.4 °F 32.0 °F 41% 30.38 in 10.0 mi SE 6.9 mph - N/A   Mostly Cloudy
11:55 AM 57.2 °F 30.2 °F 36% 30.37 in 10.0 mi SSE 5.8 mph - N/A   Scattered Clouds
12:15 PM 59.0 °F 30.2 °F 34% 30.36 in 10.0 mi SE 6.9 mph - N/A   Scattered Clouds
12:35 PM 59.0 °F 30.2 °F 34% 30.34 in 10.0 mi SE 5.8 mph - N/A   Clear
12:55 PM 59.0 °F 32.0 °F 36% 30.33 in 10.0 mi SE 6.9 mph - N/A   Scattered Clouds
1:15 PM 60.8 °F 32.0 °F 34% 30.32 in 10.0 mi ESE 8.1 mph - N/A   Scattered Clouds
1:35 PM 60.8 °F 32.0 °F 34% 30.31 in 10.0 mi SSE 5.8 mph - N/A   Scattered Clouds
1:55 PM 62.6 °F 32.0 °F 32% 30.31 in 10.0 mi ESE 9.2 mph - N/A   Scattered Clouds
2:15 PM 60.8 °F 32.0 °F 34% 30.30 in 10.0 mi Calm Calm - N/A   Scattered Clouds
2:35 PM 62.6 °F 32.0 °F 32% 30.30 in 10.0 mi SSE 6.9 mph - N/A   Scattered Clouds
2:55 PM 62.6 °F 32.0 °F 32% 30.29 in 10.0 mi SE 4.6 mph - N/A   Mostly Cloudy
3:15 PM 62.6 °F 32.0 °F 32% 30.29 in 10.0 mi SE 3.5 mph - N/A   Mostly Cloudy
3:35 PM 62.6 °F 32.0 °F 32% 30.30 in 10.0 mi SE 5.8 mph - N/A   Mostly Cloudy
3:55 PM 62.6 °F 32.0 °F 32% 30.29 in 10.0 mi SSE 5.8 mph - N/A   Scattered Clouds
4:15 PM 60.8 °F 33.8 °F 36% 30.29 in 10.0 mi SE 3.5 mph - N/A   Clear
4:35 PM 60.8 °F 33.8 °F 36% 30.29 in 10.0 mi Calm Calm - N/A   Clear
4:55 PM 55.4 °F 41.0 °F 58% 30.29 in 10.0 mi Calm Calm - N/A   Clear
5:15 PM 55.4 °F 41.0 °F 58% 30.29 in 10.0 mi Calm Calm - N/A   Clear
5:35 PM 51.8 °F 41.0 °F 67% 30.29 in 10.0 mi Calm Calm - N/A   Clear
5:55 PM 51.8 °F 41.0 °F 67% 30.29 in 10.0 mi Calm Calm - N/A   Clear
6:15 PM 57.2 °F 35.6 °F 44% 30.29 in 10.0 mi SE 4.6 mph - N/A   Scattered Clouds
6:35 PM 59.0 °F 35.6 °F 42% 30.29 in 10.0 mi SSE 3.5 mph - N/A   Mostly Cloudy
6:55 PM 55.4 °F 39.2 °F 54% 30.29 in 10.0 mi Calm Calm - N/A   Scattered Clouds
7:15 PM 53.6 °F 39.2 °F 58% 30.29 in 10.0 mi Calm Calm - N/A   Clear
7:35 PM 51.8 °F 37.4 °F 58% 30.29 in 10.0 mi Calm Calm - N/A   Clear
7:55 PM 55.4 °F 35.6 °F 47% 30.28 in 10.0 mi SE 5.8 mph - N/A   Clear
8:15 PM 55.4 °F 35.6 °F 47% 30.28 in 10.0 mi SE 3.5 mph - N/A   Clear
8:35 PM 57.2 °F 33.8 °F 41% 30.28 in 10.0 mi Calm Calm - N/A   Clear
8:55 PM 55.4 °F 33.8 °F 44% 30.28 in 10.0 mi SE 3.5 mph - N/A   Scattered Clouds
9:15 PM 57.2 °F 33.8 °F 41% 30.27 in 10.0 mi SE 6.9 mph - N/A   Mostly Cloudy
9:35 PM 59.0 °F 32.0 °F 36% 30.28 in 10.0 mi SSE 5.8 mph - N/A   Scattered Clouds
9:55 PM 59.0 °F 32.0 °F 36% 30.28 in 10.0 mi SE 10.4 mph - N/A   Mostly Cloudy
10:15 PM 57.2 °F 32.0 °F 38% 30.27 in 10.0 mi SSE 9.2 mph - N/A   Scattered Clouds
10:35 PM 57.2 °F 32.0 °F 38% 30.27 in 10.0 mi SSE 9.2 mph - N/A   Scattered Clouds
10:55 PM 57.2 °F 32.0 °F 38% 30.27 in 10.0 mi SE 5.8 mph - N/A   Scattered Clouds
11:15 PM 55.4 °F 32.0 °F 41% 30.27 in 10.0 mi SSE 5.8 mph - N/A   Scattered Clouds
11:35 PM 55.4 °F 32.0 °F 41% 30.26 in 10.0 mi SSE 6.9 mph - N/A   Clear
11:55 PM 55.4 °F 32.0 °F 41% 30.26 in 10.0 mi SSE 5.8 mph - N/A   Clear